{"data":{"norad_id":56728,"epoch":"2026-05-25T02:40:54.280704Z","epoch_age_seconds":68626,"freshness":"FRESH","line1":"1 56728U 23068U   26145.11173936  .00000718  00000+0  10990-3 0  9993","line2":"2 56728  86.6114   3.3396 0002607  87.4855 272.6660 14.72254622162623","mean_motion":14.72254622,"eccentricity":0.0002607,"inclination_deg":86.6114,"raan_deg":3.3396,"arg_perigee_deg":87.4855,"mean_anomaly_deg":272.666,"bstar":0.0001099,"rev_number":16262,"period_min":97.809168229597,"perigee_km":652.04640346544,"apogee_km":655.71289694686,"semimajor_km":7032.0166502061,"source":"CELESTRAK","updated_at":"2026-05-25T13:38:14.816829Z"}}